ONEWEB-0524, 54142

Orbit data source: Space-Track

ONEWEB-0524, 54142 is a payload satellite owned by One Web (NAA) (UK) in LEO that was launched on Sat, 22 Oct 2022 UTC via a LVM3 launch vehicle from the Sirharikota (SRI). Payload-class satellites include a variety of spacecraft equipped with specific instruments for various scientific and technological missions. These include communications satellites like Starlink; space stations such as the ISS; scientific satellites like the Hubble; Earth observation satellites from companies like Planet Labs, Umbra, and HawkEye 360; GPS; miniature CubeSats for education and research; and military/defense satellites.

Loading next visibility...
Identifier
54142, 2022-138AF
Orbit
LEO
Country
Flag of UKUK
Related business
Manufacturer
One Web
Mission
Operational Commercial Communications
Bus & Motor
ARROW, Unknown motor
Mass
148 kg wet, ~140 kg dry
Launch date (UTC)
2022-10-22 (4 years ago)
Launch vehicle
LVM3
Launch site
Sirharikota (SRI)
Object type
Payload
Rocket body
Debris
Shape & HBR
Trap Box + 2 Pan, 6.7 m
Radar Cross Section
3.464 m², Large (>1 m²)

Expand to show TLE details & history
Last TLE update: 2 days ago

TLE from 2 days ago
0 ONEWEB-0524
1 54142U 22138AF  26171.27676715  .00000049  00000-0  88700-4 0  9990
2 54142  87.9197 273.8217 0002716 113.4251 246.7168 13.20771476179719
Epoch: 2026-06-20T06:38Z
TLE epoch observation values (Epoch: 2026-06-20T06:38:32.681Z)
Latitude
-0.00005°
Longitude
-94.30818°
Altitude
1,185.49 km
Speed
7.26 km/s
True Right ascension
18h 15m 17s
True Declination
0° 00' 00"
Sunlit
Object was in full shadow at epoch
Visualization orbit readout
Latitude
Unknown
Longitude
Unknown
Altitude
Unknown
Speed
Unknown
Apparent Right ascension
Unknown
Apparent Declination
Unknown
Sunlit
N/A
Visualization observer readout
Local Sidereal Time
23:07:39
Azimuth
Unknown
Elevation
Unknown
Doppler factor
Unknown
Orbital elements
Apogee altitude
1,180.931 km
Perigee altitude
1,176.826 km
Semi-major axis
7,557.016 km
Eccentricity
0.00027
Inclination
87.9197°
RAAN
273.8217°
Arg. of periapsis
113.4251°
True anomaly
246.68822°
Mean anomaly
246.7168°
Eccentric anomaly
246.70251°
Mean motion
3.30383 °/min
Orbital period
108.96 mins
BSTAR
0.0000887
Loading maneuver chart data...
Computing Atmospheric mass density...
Loading historical data...
Loading historical data...
Loading historical data...
Loading historical data...
Loading historical data...
Loading historical data...
Loading historical data...

Documentation

Showing up to 5 results
|